CW9676 Weather Reports


Display with metric or nautical units.
time (UTC)temp
F
wind
direction
speed
MPH
gust
MPH
rain 1hr
in
rain 24hr
in
rain mn
in
humidity
%
barometer
mb
20260904193557 78 226 10.0 19.0 0.00 0.39 0.38 54 1007.0
20260904192553 79 186 8.0 17.0 0.00 0.39 0.38 56 1007.1
20260904191606 78 150 3.0 14.0 0.00 0.39 0.38 53 1007.3
20260904190557 78 194 6.0 14.0 0.00 0.39 0.38 52 1007.4
20260904185544 80 143 6.0 13.0 0.00 0.39 0.38 50 1007.5
20260904184551 80 154 4.0 11.0 0.00 0.39 0.38 50 1007.6
20260904183528 79 245 4.0 10.0 0.00 0.39 0.38 51 1007.5
20260904182517 79 4 5.0 10.0 0.00 0.39 0.38 53 1007.7
20260904181536 78 211 4.0 10.0 0.00 0.39 0.38 59 1008.0
20260904180555 77 218 4.0 9.0 0.00 0.39 0.38 62 1008.1
20260904175541 75 152 3.0 9.0 0.00 0.39 0.38 62 1008.2
20260904174602 75 165 4.0 10.0 0.00 0.39 0.38 62 1008.5
20260904171251 74 213 4.0 11.0 0.00 0.39 0.38 68 1008.8
20260904170301 75 187 4.0 11.0 0.00 0.39 0.38 64 1008.7
20260904165246 74 4 5.0 10.0 0.00 0.39 0.38 69 1008.8
20260904163137 72 179 5.0 9.0 0.00 0.39 0.38 74 1008.6
20260904162128 72 130 4.0 11.0 0.00 0.39 0.38 72 1008.7
20260904161136 72 132 5.0 12.0 0.00 0.39 0.38 73 1008.7
20260904160125 71 215 5.0 12.0 0.00 0.39 0.38 76 1008.6
20260904155144 70 159 5.0 10.0 0.00 0.39 0.38 78 1008.6
20260904154126 69 192 3.0 8.0 0.00 0.39 0.38 81 1008.6
20260904153059 68 179 4.0 9.0 0.00 0.39 0.38 83 1008.6
20260904150918 67 204 4.0 7.0 0.00 0.39 0.38 85 1008.7
20260904145904 67 194 4.0 8.0 0.00 0.39 0.38 84 1008.6
20260904143735 67 4 3.0 6.0 0.00 0.39 0.38 85 1008.6
20260904141702 67 217 2.0 6.0 0.00 0.39 0.38 87 1008.3
20260904140714 66 200 3.0 6.0 0.00 0.39 0.38 87 1008.2
20260904133459 64 215 3.0 8.0 0.00 0.39 0.38 91 1007.7
20260904131313 63 206 3.0 6.0 0.00 0.39 0.38 92 1007.5
20260904130253 63 204 4.0 8.0 0.00 0.39 0.38 91 1007.3
20260904125300 63 210 4.0 9.0 0.00 0.39 0.38 92 1007.1
20260904124309 63 225 5.0 10.0 0.00 0.39 0.38 92 1006.9
20260904123329 63 215 5.0 11.0 0.00 0.39 0.38 92 1006.8
20260904122306 63 207 5.0 11.0 0.00 0.39 0.38 92 1006.8
20260904120105 63 198 5.0 9.0 0.00 0.39 0.38 92 1006.6
20260904115032 63 175 4.0 10.0 0.00 0.39 0.38 92 1006.6
20260904114019 63 213 5.0 10.0 0.00 0.39 0.38 93 1006.7
20260904113033 63 213 5.0 9.0 0.00 0.39 0.38 93 1006.7
20260904112010 63 209 3.0 6.0 0.00 0.39 0.38 93 1006.6
20260904110940 63 209 3.0 6.0 0.00 0.39 0.38 94 1006.6
20260904105932 63 209 3.0 5.0 0.00 0.39 0.38 94 1006.5
20260904104953 63 225 1.0 3.0 0.00 0.39 0.38 95 1006.6
20260904103954 63 340 0.0 1.0 0.00 0.39 0.38 95 1006.6
20260904103016 63 340 0.0 1.0 0.00 0.39 0.38 95 1006.6
20260904102041 63 111 0.0 1.0 0.00 0.39 0.38 95 1006.6
20260904101034 63 111 0.0 2.0 0.00 0.39 0.38 95 1006.8
20260904100005 63 337 3.0 9.0 0.00 0.39 0.38 94 1006.8
20260904095029 63 318 4.0 9.0 0.00 0.39 0.38 94 1006.8
20260904094053 63 333 3.0 9.0 0.00 0.39 0.38 94 1006.9
20260904093058 62 348 5.0 9.0 0.00 0.39 0.38 93 1007.0
20260904092115 63 4 6.0 10.0 0.04 0.39 0.38 93 1007.0
20260904091128 63 352 6.0 13.0 0.13 0.39 0.38 92 1007.0
20260904084944 66 14 4.0 12.0 0.00 0.00 0.00 78 1007.3
20260904083925 67 29 6.0 12.0 0.00 0.00 0.00 77 1007.2
20260904082858 67 359 1.0 6.0 0.00 0.00 0.00 76 1007.0
20260904081847 67 37 6.0 11.0 0.00 0.00 0.00 77 1007.0
20260904080910 67 67 2.0 5.0 0.00 0.00 0.00 77 1007.0
20260904075849 67 4 4.0 6.0 0.00 0.00 0.00 77 1006.6
20260904074843 67 204 3.0 6.0 0.00 0.00 0.00 77 1006.6
20260904073847 67 192 2.0 5.0 0.00 0.00 0.00 77 1006.6
20260904071736 67 214 4.0 8.0 0.00 0.00 0.00 76 1006.5
20260904070731 67 194 4.0 9.0 0.00 0.00 0.00 76 1006.5
20260904065719 67 199 5.0 11.0 0.00 0.00 0.00 75 1006.4
20260904064743 67 4 6.0 11.0 0.00 0.00 0.00 75 1006.5
20260904062541 67 4 4.0 10.0 0.00 0.00 0.00 74 1006.7
20260904061600 67 4 5.0 12.0 0.00 0.00 0.00 73 1006.5
20260904060538 68 222 5.0 12.0 0.00 0.00 0.00 73 1006.6
20260904055553 68 4 4.0 9.0 0.00 0.00 0.00 73 1006.6
20260904053512 68 4 4.0 8.0 0.00 0.00 0.00 73 1006.6
20260904051328 69 203 4.0 9.0 0.00 0.00 0.00 71 1006.5
20260904050303 69 163 4.0 9.0 0.00 0.00 0.00 70 1006.5
20260904045246 69 165 3.0 9.0 0.00 0.00 0.00 69 1006.5
20260904044256 70 195 3.0 7.0 0.00 0.00 0.00 68 1006.4
20260904043316 70 146 3.0 8.0 0.00 0.00 0.00 67 1006.4
20260904041053 70 188 4.0 9.0 0.00 0.00 0.00 66 1006.2
20260904034933 71 4 4.0 9.0 0.00 0.00 0.00 65 1006.1
20260904033946 71 175 4.0 9.0 0.00 0.00 0.00 64 1006.0
20260904033004 71 161 4.0 8.0 0.00 0.00 0.00 64 1005.9
20260904032020 71 4 3.0 6.0 0.00 0.00 0.00 63 1005.9
20260904025948 71 206 3.0 5.0 0.00 0.00 0.00 63 1005.5
20260904024948 71 4 3.0 6.0 0.00 0.00 0.00 62 1005.4
20260904023958 71 215 4.0 7.0 0.00 0.00 0.00 62 1005.3
20260904023016 72 227 4.0 7.0 0.00 0.00 0.00 62 1005.0
20260904022036 72 202 3.0 6.0 0.00 0.00 0.00 61 1004.8
20260904021051 72 190 3.0 5.0 0.00 0.00 0.00 60 1004.7
20260904020104 73 194 3.0 6.0 0.00 0.00 0.00 59 1004.5
20260904015119 74 188 4.0 10.0 0.00 0.00 0.00 56 1004.6
20260904014048 75 141 4.0 10.0 0.00 0.00 0.00 51 1004.6
20260904011847 75 155 2.0 5.0 0.00 0.00 0.00 50 1004.4
20260904010839 75 167 3.0 9.0 0.00 0.00 0.00 49 1004.4
20260904004726 76 177 0.0 0.0 0.00 0.00 0.00 50 1004.3
20260904003740 76 176 0.0 0.0 0.00 0.00 0.00 50 1004.4
20260904001616 77 93 0.0 1.0 0.00 0.00 0.00 48 1004.5
20260904000638 77 93 0.0 0.0 0.00 0.00 0.00 49 1004.5
20260903233258 77 58 2.0 5.0 0.00 0.00 0.00 50 1004.6
20260903232319 77 58 1.0 4.0 0.00 0.00 0.00 48 1004.6
20260903231336 77 57 1.0 5.0 0.00 0.00 0.00 49 1004.5
20260903230336 77 52 2.0 5.0 0.00 0.00 0.00 51 1004.5
20260903225325 79 46 2.0 5.0 0.00 0.00 0.00 46 1004.5
20260903224302 80 55 1.0 5.0 0.00 0.00 0.00 43 1004.5
20260903223238 81 32 1.0 4.0 0.00 0.00 0.00 41 1004.5
20260903222257 80 258 0.0 3.0 0.00 0.00 0.00 42 1004.4
20260903221227 80 192 1.0 3.0 0.00 0.00 0.00 43 1004.5
20260903220247 79 153 0.0 2.0 0.00 0.00 0.00 44 1004.5
20260903215306 79 67 1.0 5.0 0.00 0.00 0.00 44 1004.7
20260903214319 79 103 0.0 5.0 0.00 0.00 0.00 44 1004.8
20260903213253 78 29 1.0 1.0 0.00 0.00 0.00 43 1004.9
20260903212300 79 45 2.0 8.0 0.00 0.00 0.00 43 1005.1
20260903211244 79 145 3.0 8.0 0.00 0.00 0.00 42 1005.0
20260903210230 80 78 2.0 9.0 0.00 0.00 0.00 41 1005.2
20260903205217 80 100 4.0 9.0 0.00 0.00 0.00 42 1005.2
20260903204234 84 129 3.0 8.0 0.00 0.00 0.00 38 1005.2
20260903203223 83 317 4.0 8.0 0.00 0.00 0.00 40 1005.2
20260903201058 81 359 3.0 10.0 0.00 0.00 0.00 45 1005.7
20260903200107 80 4 3.0 9.0 0.00 0.00 0.00 48 1005.7
20260903195046 77 111 3.0 9.0 0.00 0.00 0.00 51 1006.0
20260903194046 76 166 3.0 5.0 0.00 0.00 0.00 53 1006.1